Weather in Yel'nya

Russia / Smolensk Oblast     55°52′28″N   34°46′37″E
temp.,
°C
wind,
m/s
gust,
m/s
humid.,
%
clouds,
%
prec.,
mm/h
press.,
hPa
HPBL,
m
20 may, fri
fri2000:00+5nnw36961 1.5 1017146
03:00+2n36950 1.5 1018120
06:00+3nne26931 0.0 1019183
09:00+8ene347299 0.0 1020678
12:00+11nne2248100 0.0 10191475
15:00+12n2245100 0.0 10171674
18:00+12ne2250100 0.0 10161423
21:00+6e3467100 0.0 101772
21 may, sat
sat2100:00+5e3764100 0.0 1015150
03:00+4e4116993 0.0 1015224
06:00+5e4107082 0.0 1013280
09:00+10ese465368 0.0 1012728
12:00+13ese454614 0.0 10111827
15:00+15ese344179 0.0 10082150
18:00+14e455099 0.0 10071249
21:00+9ene3865100 0.0 1006189
22 may, sun
sun2200:00+8ene51068100 0.0 1005332
03:00+5ene5117591 0.0 1004299
06:00+5ne5127563 0.0 1004416
09:00+8ene695921 0.0 1005912
12:00+11ne674399 0.0 10052315
15:00+12nne5738100 0.0 10052477
18:00+12nne464751 0.0 10062013
21:00+6nne226585 0.0 100825
23 may, mon
mon2300:00+3n22725 0.0 100811
03:00+2nw22745 0.0 100928
06:00+3nnw39765 0.0 1010235
09:00+8nnw57440 0.0 10091255
12:00+11nnw56394 0.0 10091795
15:00+13nnw68335 0.0 10082062
18:00+13nnw58425 0.0 10081650
21:00+6nnw3360100 0.0 100941
24 may, tue
tue2400:00+4nnw386365 0.0 1011132
03:00+3nw376695 0.0 1012121
06:00+4nw3116698 0.0 1013270
09:00+11nnw611595 0.0 1012984
12:00+15nnw6114991 0.0 10112189
15:00+17nnw51049100 0.0 10112613
18:00+16nnw595273 0.0 10131338
21:00+10nw35755 0.0 101476